Home   Weather   Colón   Past weeks
Flag for Panama

Past Weather in Colón, Panama — Yesterday and Last 2 Weeks

Now
91 °F

Scattered clouds.


Feels Like: 100 °F
Forecast: 87 / 75 °F
Wind: 12 mph from North

Location: Marcos A. Gelabert

Current Time: Apr 23, 2019 at 11:23:38 am

Latest Report: Apr 23, 2019 at 11:00 am


Visibility: N/A

Pressure: 29.86 "Hg

Humidity: 56%

Dew Point: 73 °F

Location of ColónLocation

Past Weather in Colón — Graph

°F

Colón Temperature Yesterday

Maximum temperature yesterday: 91 °F (at 1:00 pm)
Minimum temperature yesterday: 77 °F (at 6:00 am)
Average temperature yesterday: 84 °F

High & Low Weather Summary for the Past Weeks

 TemperatureHumidityPressure
High95 °F (Apr 15, 1:00 pm)100% (Apr 21, 1:00 pm)29.92 "Hg (Apr 21, 1:00 pm)
Low73 °F (Apr 21, 1:20 pm)44% (Apr 15, 12:00 pm)29.71 "Hg (Apr 12, 3:00 pm)
Average85 °F69%29.83 "Hg
* Reported Apr 8 10:00 am — Apr 23 10:00 am, Colón. Weather by CustomWeather, © 2019

Note: Actual official high and low records may vary slightly from our data, if they occured in-between our weather recording intervals... More about our weather records

Advertising

Colón Weather History for the Previous 24 Hours

Scroll right to see more
 ConditionsComfort  
Time TempWeatherWind HumidityBarometerVisibility
10:00 am
Tue, Apr 23
88 °FScattered clouds.14 mph59%29.89 "HgN/A
9:00 am86 °FPassing clouds.9 mph62%29.89 "HgN/A
8:00 am82 °FPassing clouds.7 mph74%29.89 "HgN/A
7:00 am79 °FPassing clouds.7 mph84%29.86 "HgN/A
6:00 am77 °FPassing clouds.7 mph83%29.86 "HgN/A
10:00 pm
Mon, Apr 22
81 °FPassing clouds.5 mph74%29.89 "HgN/A
9:00 pm82 °FPassing clouds.10 mph70%29.86 "HgN/A
8:00 pm82 °FPassing clouds.9 mph70%29.83 "HgN/A
7:00 pm82 °FPassing clouds.9 mph70%29.83 "HgN/A
6:00 pm84 °FScattered clouds.12 mph66%29.80 "HgN/A
5:00 pm86 °FScattered clouds.15 mph62%29.77 "HgN/A
4:00 pm88 °FScattered clouds.9 mph62%29.77 "HgN/A
3:00 pm88 °FRain. Broken clouds.13 mph62%29.80 "Hg6 mi
2:00 pm88 °FScattered clouds.15 mph62%29.80 "HgN/A
1:00 pm91 °FScattered clouds.14 mph59%29.83 "HgN/A
12:00 pm86 °FScattered clouds.2 mph70%29.86 "HgN/A
11:10 am81 °FScattered clouds.5 mph89%29.89 "HgN/A
11:00 am82 °FLight rain. Scattered clouds.10 mph79%29.89 "Hg6 mi
Weather by CustomWeather, © 2019

See weather overview